Timestamp[UTC];2m Lufttemperatur [degC] (tas);Stations-Luftdruck [Pa] (ps);relative Luftfeuchtigkeit [%] (hurs);spezifische Luftfeuchtigkeit [kg/kg] (huss);Niederschlagsmenge [mm] (pr);Windgeschwindigkeit in 2m [m/s] (sfcWind);Windrichtung [deg];maximale Windgeschwindigkeit [m/s] (wsgsmax);u-Windkomponente [m/s] (uas);v-Windkomponente [m/s] (vas);Sonneneinstrahlung [W/m2];Blitzrate [n];Blitzentfernung [km];Bodenfeuchte in 5cm Tiefe [vol%];Bodenfeuchte in 15cm Tiefe [vol%];Bodenfeuchte in 30cm Tiefe [vol%];Bodenfeuchte in 60cm Tiefe [vol%];Bodentemperatur in 5cm Tiefe [degC];Bodentemperatur in 15cm Tiefe [degC];Bodentemperatur in 30cm Tiefe [degC];Bodentemperatur in 60cm Tiefe [degC];Matrixpotential in 30cm Tiefe [kPa];Bodenfeuchte aus CRNS [vol%] (mrso);Neutronen Anzahl [N/h]
2021-08-01 00:00:00;12,8;99250;92;0,0085;0,0;0,4;159;1,2;-0,29;-0,18;0;0;0;19,7;27,6;25,9;33,4;16,0;16,7;16,8;16,5;-11,8;39,4;1422
2021-08-01 01:00:00;12,1;99222;94;0,0083;0,0;0,4;190;1,0;-0,14;-0,11;0;0;0;19,6;27,6;25,9;33,4;15,7;16,6;16,8;16,5;-11,8;39,4;1475
2021-08-01 02:00:00;13,0;99212;93;0,0088;0,0;0,6;213;1,5;-0,5;-0,28;0;0;0;19,6;27,6;25,9;33,4;15,6;16,4;16,8;16,5;-11,8;39,7;1451
2021-08-01 03:00:00;12,8;99202;94;0,0087;0,0;0,4;230;1,3;-0,25;-0,29;0;0;0;19,6;27,6;25,9;33,4;15,6;16,3;16,8;16,5;-11,8;39,6;1437
2021-08-01 04:00:00;12,4;99218;94;0,0085;0,0;0,5;242;1,3;-0,17;-0,44;8;0;0;19,6;27,6;25,9;33,4;15,4;16,3;16,7;16,5;-11,8;39,4;1441
2021-08-01 05:00:00;12,7;99215;95;0,0087;0,0;0,3;212;0,8;-0,25;-0,17;44;0;0;19,6;27,6;25,9;33,4;15,3;16,2;16,7;16,5;-11,8;39,3;1489
2021-08-01 06:00:00;14,3;99180;91;0,0094;0,0;1,0;252;2,1;-0,15;-0,97;220;0;0;19,6;27,6;25,9;33,4;15,3;16,1;16,6;16,5;-11,8;39,2;1392
2021-08-01 07:00:00;16,4;99150;80;0,0093;0,0;1,3;238;3,1;-0,71;-1,13;414;0;0;19,6;27,6;25,9;33,4;15,6;16,0;16,6;16,5;-11,8;38,9;1485
2021-08-01 08:00:00;17,9;99135;68;0,0088;0,0;2,5;272;5,2;0,13;-2,49;556;0;0;19,6;27,6;25,9;33,3;16,1;16,1;16,5;16,5;-11,8;39,0;1449
2021-08-01 09:00:00;18,1;99192;65;0,0085;0,0;3,4;277;5,8;0,4;-3,32;487;0;0;19,5;27,5;25,9;33,3;16,5;16,2;16,5;16,5;-11,9;38,6;1424
2021-08-01 10:00:00;18,4;99220;65;0,0086;0,0;4,4;269;7,4;0,0;-4,41;660;0;0;19,4;27,4;25,8;33,3;16,9;16,4;16,5;16,5;-11,9;38,3;1447
2021-08-01 11:00:00;19,0;99208;64;0,0089;0,0;4,2;267;7,1;-0,13;-4,16;738;0;0;19,4;27,4;25,8;33,3;17,4;16,6;16,5;16,4;-12,0;37,6;1413
2021-08-01 12:00:00;19,2;99210;66;0,0092;0,0;3,3;266;6,3;-0,2;-3,28;518;0;0;19,3;27,3;25,8;33,3;17,8;16,8;16,4;16,4;-12,0;37,4;1390
2021-08-01 13:00:00;19,7;99188;64;0,0092;0,0;3,1;269;6,1;-0,02;-3,12;512;0;0;19,3;27,3;25,8;33,3;17,8;17,0;16,5;16,4;-12,1;37,2;1441
2021-08-01 14:00:00;18,4;99225;68;0,009;0,19;5,4;284;9,7;1,34;-5,21;248;0;0;19,2;27,2;25,7;33,2;17,9;17,2;16,5;16,4;-12,1;37,1;1407
2021-08-01 15:00:00;16,2;99312;80;0,0093;0,05;3,4;292;5,6;1,22;-3,16;277;0;0;19,2;27,2;25,7;33,2;17,6;17,2;16,6;16,4;-12,1;37,0;1445
2021-08-01 16:00:00;17,8;99295;72;0,0092;0,0;4,5;292;7,6;1,73;-4,16;260;0;0;19,2;27,2;25,7;33,2;17,4;17,2;16,6;16,4;-12,1;36,8;1467
2021-08-01 17:00:00;17,5;99333;70;0,0088;0,0;4,0;294;6,6;1,59;-3,6;102;0;0;19,1;27,2;25,7;33,2;17,3;17,2;16,7;16,4;-12,2;37,0;1423
2021-08-01 18:00:00;17,0;99370;74;0,0089;0,0;2,7;288;5,1;0,86;-2,53;33;0;0;19,1;27,2;25,7;33,2;17,1;17,2;16,7;16,4;-12,2;37,2;1468
2021-08-01 19:00:00;16,2;99438;77;0,0088;0,0;2,8;290;4,6;0,93;-2,68;2;0;0;19,1;27,2;25,7;33,2;16,9;17,1;16,7;16,4;-12,2;37,1;1387
2021-08-01 20:00:00;15,3;99475;82;0,0089;0,0;1,1;269;2,0;0,06;-1,05;0;0;0;19,1;27,2;25,7;33,2;16,7;17,0;16,7;16,4;-12,2;37,1;1520
2021-08-01 21:00:00;14,1;99492;89;0,0089;0,0;0,5;247;1,2;-0,14;-0,43;0;0;0;19,1;27,2;25,7;33,2;16,5;16,9;16,8;16,4;-12,2;37,2;1426
2021-08-01 22:00:00;14,1;99517;89;0,009;0,0;0,5;229;1,1;-0,22;-0,35;0;0;0;19,1;27,2;25,7;33,2;16,3;16,8;16,7;16,4;-12,2;37,0;1516
2021-08-01 23:00:00;14,4;99518;89;0,0092;0,0;0,7;255;1,8;-0,16;-0,66;0;0;0;19,1;27,2;25,7;33,2;16,2;16,7;16,7;16,4;-12,2;37,2;1399
2021-08-02 00:00:00;14,3;99518;91;0,0093;0,0;0,8;248;1,7;-0,19;-0,76;0;0;0;19,1;27,2;25,7;33,2;16,2;16,6;16,7;16,4;-12,2;37,1;1430
2021-08-02 01:00:00;14,6;99520;90;0,0094;0,0;1,1;277;2,0;0,28;-0,98;0;0;0;19,1;27,2;25,7;33,2;16,1;16,6;16,7;16,4;-12,2;36,8;1451
2021-08-02 02:00:00;14,8;99520;90;0,0094;0,0;0,8;270;1,7;0,01;-0,79;0;0;0;19,1;27,2;25,7;33,2;16,1;16,5;16,7;16,4;-12,2;36,7;1430
2021-08-02 03:00:00;14,6;99530;91;0,0095;0,0;0,8;273;1,6;0,13;-0,67;0;0;0;19,1;27,2;25,7;33,2;16,1;16,5;16,7;16,4;-12,2;36,7;1456
2021-08-02 04:00:00;14,3;99558;94;0,0096;0,75;0,9;333;1,7;0,8;-0,42;3;0;0;19,1;27,2;25,7;33,2;16,1;16,5;16,6;16,4;-12,2;36,7;1341
2021-08-02 05:00:00;14,1;99572;96;0,0096;0,24;0,6;216;1,2;-0,01;-0,05;22;0;0;19,1;27,2;25,7;33,2;16,1;16,4;16,6;16,4;-12,2;37,1;1387
2021-08-02 06:00:00;14,2;99585;96;0,0098;0,03;0,8;202;1,7;0,6;0,15;62;0;0;19,1;27,2;25,7;33,2;16,1;16,4;16,6;16,4;-12,2;37,2;1369
2021-08-02 07:00:00;14,2;99618;96;0,0098;1,84;0,7;99;1,5;0,12;-0,02;69;0;0;19,1;27,2;25,7;33,2;16,1;16,4;16,6;16,4;-12,2;37,6;1415
2021-08-02 08:00:00;14,7;99612;97;0,0102;0,1;1,7;327;3,0;1,41;-0,94;258;0;0;19,1;27,2;25,7;33,2;16,2;16,4;16,5;16,4;-12,2;37,7;1369
2021-08-02 09:00:00;15,0;99628;94;0,01;0,0;2,6;334;4,5;2,24;-1,15;382;0;0;19,2;27,2;25,7;33,2;16,4;16,4;16,5;16,4;-12,2;37,9;1396
2021-08-02 10:00:00;15,8;99625;90;0,0101;0,0;2,2;341;3,8;2,1;-0,7;387;0;0;19,2;27,2;25,6;33,2;16,7;16,5;16,5;16,4;-12,2;38,4;1345
2021-08-02 11:00:00;15,3;99658;90;0,0098;0,12;2,4;328;4,0;2,06;-1,24;251;0;0;19,2;27,2;25,6;33,2;16,8;16,6;16,5;16,4;-12,2;39,2;1383
2021-08-02 12:00:00;16,0;99640;88;0,01;0,0;2,5;337;4,4;2,31;-0,98;476;0;0;19,2;27,2;25,6;33,2;16,9;16,6;16,5;16,4;-12,2;39,4;1398
2021-08-02 13:00:00;16,8;99632;82;0,0098;0,0;2,5;331;4,7;2,22;-1,23;364;0;0;19,2;27,2;25,6;33,2;17,1;16,7;16,5;16,4;-12,2;39,6;1407
2021-08-02 14:00:00;15,8;99665;85;0,0095;1,53;2,7;295;4,4;1,1;-2,33;143;0;0;19,1;27,2;25,6;33,2;17,1;16,8;16,5;16,4;-12,2;40,3;1355
2021-08-02 15:00:00;16,9;99640;82;0,0099;0,0;2,6;283;5,1;0,6;-2,56;476;0;0;19,1;27,2;25,6;33,2;17,0;16,8;16,5;16,3;-12,2;40,5;1392
2021-08-02 16:00:00;18,2;99628;69;0,009;0,0;2,0;296;3,8;0,86;-1,78;370;0;0;19,1;27,2;25,6;33,1;17,2;16,9;16,6;16,3;-12,2;40,7;1348
2021-08-02 17:00:00;17,8;99650;66;0,0084;0,0;2,6;321;4,5;1,9;-1,58;221;0;0;19,1;27,2;25,6;33,1;17,2;16,9;16,6;16,3;-12,2;40,4;1394
2021-08-02 18:00:00;16,6;99695;74;0,0087;0,0;1,0;12;2,5;0,98;0,23;80;0;0;19,1;27,1;25,6;33,1;17,1;17,0;16,6;16,3;-12,2;40,5;1343
2021-08-02 19:00:00;14,2;99760;82;0,0083;0,0;0,5;219;1,2;-0,14;-0,09;4;0;0;19,1;27,2;25,6;33,1;16,8;16,9;16,6;16,3;-12,2;40,4;1353
2021-08-02 20:00:00;12,5;99782;90;0,0081;0,0;0,8;206;1,3;-0,75;-0,36;0;0;0;19,1;27,2;25,6;33,1;16,4;16,9;16,6;16,3;-12,2;41,0;1433
2021-08-02 21:00:00;11,2;99770;93;0,0077;0,0;0,5;195;1,0;-0,42;-0,17;0;0;0;19,1;27,1;25,6;33,1;16,0;16,7;16,6;16,3;-12,2;41,1;1282
2021-08-02 22:00:00;10,7;99758;94;0,0076;0,0;0,4;220;0,9;-0,3;-0,21;0;0;0;19,1;27,1;25,6;33,1;15,6;16,5;16,6;16,3;-12,2;41,3;1315
2021-08-02 23:00:00;10,7;99727;94;0,0076;0,0;0,3;192;0,8;-0,19;-0,08;0;0;0;19,1;27,2;25,6;33,1;15,3;16,4;16,6;16,3;-12,2;41,4;1338
2021-08-03 00:00:00;11,1;99688;96;0,008;0,0;0,3;184;0,6;-0,17;0,08;0;0;0;19,1;27,1;25,6;33,1;15,1;16,2;16,6;16,3;-12,2;41,8;1375
2021-08-03 01:00:00;11,5;99655;96;0,0082;0,0;0,5;122;0,9;-0,2;0,32;0;0;0;19,1;27,1;25,6;33,1;15,1;16,0;16,5;16,3;-12,2;42,5;1308
2021-08-03 02:00:00;11,9;99625;97;0,0085;0,0;0,4;122;0,9;-0,12;0,34;0;0;0;19,1;27,1;25,6;33,1;15,1;15,9;16,5;16,3;-12,2;42,9;1387
2021-08-03 03:00:00;12,1;99590;98;0,0087;0,03;0,4;119;1,0;-0,19;0,34;0;0;0;19,1;27,2;25,6;33,1;15,1;15,9;16,4;16,3;-12,2;43,3;1419
2021-08-03 04:00:00;12,7;99575;96;0,0089;0,14;0,7;126;1,2;-0,39;0,44;2;0;0;19,1;27,2;25,6;33,1;15,1;15,8;16,4;16,3;-12,2;43,8;1392
2021-08-03 05:00:00;12,8;99555;98;0,0091;0,03;0,8;97;1,6;-0,12;0,8;22;0;0;19,1;27,2;25,6;33,1;15,2;15,8;16,3;16,3;-12,3;44,0;1370
2021-08-03 06:00:00;13,2;99535;98;0,0093;0,17;1,2;96;2,1;-0,13;1,16;60;0;0;19,2;27,2;25,6;33,1;15,3;15,7;16,3;16,3;-12,3;44,7;1399
2021-08-03 07:00:00;13,8;99528;98;0,0097;0,1;1,2;117;2,0;-0,53;1,02;96;0;0;19,2;27,2;25,6;33,1;15,4;15,8;16,3;16,3;-12,3;44,9;1292
2021-08-03 08:00:00;14,2;99512;98;0,01;0,67;1,7;124;2,7;-0,91;1,38;136;0;0;19,2;27,2;25,6;33,1;15,6;15,8;16,2;16,3;-12,3;45,4;1353
2021-08-03 09:00:00;14,7;99472;98;0,0103;0,09;1,8;121;3,0;-0,92;1,49;228;0;0;19,2;27,2;25,6;33,1;15,8;15,8;16,2;16,3;-12,3;46,3;1369
2021-08-03 10:00:00;15,8;99445;96;0,0109;0,0;1,6;101;2,9;-0,32;1,49;374;0;0;19,2;27,2;25,6;33,1;16,1;15,9;16,2;16,3;-12,3;46,6;1338
2021-08-03 11:00:00;17,6;99382;88;0,0112;0,0;2,0;164;3,7;-0,87;0,69;508;0;0;19,2;27,2;25,6;33,1;16,5;16,1;16,2;16,3;-12,3;46,7;1313
2021-08-03 12:00:00;17,6;99363;86;0,0109;0,21;2,2;310;5,7;1,18;-1,49;496;0;0;19,2;27,2;25,6;33,1;16,8;16,2;16,2;16,3;-12,3;46,7;1301
2021-08-03 13:00:00;17,2;99365;86;0,0105;4,74;2,6;248;5,2;-0,48;-1,86;351;2;4;19,2;27,1;25,6;33,1;17,1;16,4;16,2;16,2;-12,3;47,1;1338
2021-08-03 14:00:00;15,3;99405;98;0,0107;1,37;1,3;175;3,1;1,1;-0,22;222;0;0;19,8;27,2;25,6;33,1;17,0;16,5;16,2;16,2;-12,3;47,3;1312
2021-08-03 15:00:00;15,8;99395;96;0,0109;0,12;1,5;45;2,5;0,88;1,05;232;0;0;20,5;27,2;25,6;33,1;16,9;16,6;16,2;16,2;-12,3;48,0;1305
2021-08-03 16:00:00;16,1;99393;93;0,0107;0,0;2,9;245;4,8;1,93;-1,72;301;0;0;20,9;27,2;25,6;33,1;17,0;16,6;16,3;16,2;-12,3;48,2;1301
2021-08-03 17:00:00;15,8;99420;91;0,0102;0,0;2,8;304;4,8;1,56;-2,25;169;0;0;21,2;27,2;25,6;33,1;16,9;16,7;16,3;16,2;-12,3;48,6;1248
2021-08-03 18:00:00;15,0;99460;90;0,0097;0,0;1,7;288;2,9;0,55;-1,6;33;0;0;21,4;27,2;25,6;33,1;16,8;16,7;16,3;16,2;-12,3;48,6;1311
2021-08-03 19:00:00;14,8;99490;92;0,0098;0,0;0,5;236;1,3;-0,12;-0,36;6;0;0;21,6;27,2;25,6;33,1;16,6;16,7;16,4;16,2;-12,3;49,0;1254
2021-08-03 20:00:00;15,4;99530;90;0,0098;0,0;1,4;272;2,2;0,06;-1,38;0;0;0;21,7;27,2;25,6;33,1;16,5;16,6;16,4;16,2;-12,3;48,9;1282
2021-08-03 21:00:00;14,9;99552;90;0,0095;0,0;1,1;272;1,9;0,06;-1,06;0;0;0;21,9;27,2;25,6;33,1;16,4;16,6;16,4;16,2;-12,3;49,2;1252
2021-08-03 22:00:00;13,0;99560;93;0,0088;0,0;0,6;260;1,3;-0,04;-0,52;0;0;0;22,0;27,2;25,6;33,1;16,2;16,5;16,4;16,2;-12,3;49,2;1301
2021-08-03 23:00:00;11,7;99565;95;0,0082;0,0;0,3;283;1,1;0,06;-0,28;0;0;0;22,1;27,2;25,6;33,1;15,9;16,4;16,4;16,2;-12,3;49,3;1361
2021-08-04 00:00:00;11,3;99570;96;0,008;0,0;0,5;202;1,3;-0,27;-0,16;0;0;0;22,2;27,1;25,6;33,1;15,5;16,3;16,4;16,2;-12,3;48,9;1329
2021-08-04 01:00:00;10,7;99568;96;0,0078;0,0;0,5;226;1,0;-0,3;-0,1;0;0;0;22,2;27,1;25,6;33,1;15,3;16,1;16,4;16,2;-12,3;49,0;1281
2021-08-04 02:00:00;10,2;99545;96;0,0075;0,0;0,3;278;0,8;0,05;-0,24;0;0;0;22,3;27,2;25,6;33,1;15,0;16,0;16,4;16,2;-12,3;49,6;1292
2021-08-04 03:00:00;10,0;99542;96;0,0074;0,0;0,3;255;0,9;-0,08;-0,23;0;0;0;22,3;27,2;25,6;33,1;14,8;15,8;16,3;16,2;-12,3;49,4;1389
2021-08-04 04:00:00;10,1;99560;97;0,0075;0,0;0,5;280;1,1;0,05;-0,47;14;0;0;22,4;27,2;25,6;33,1;14,6;15,7;16,3;16,2;-12,3;49,3;1336
2021-08-04 05:00:00;11,4;99575;99;0,0083;0,0;0,4;282;1,1;0,02;-0,3;81;0;0;22,4;27,2;25,6;33,1;14,6;15,6;16,2;16,2;-12,3;49,1;1366
2021-08-04 06:00:00;12,9;99592;100;0,0093;0,0;0,4;336;0,8;0,34;-0,14;142;0;0;22,4;27,2;25,6;33,1;14,7;15,5;16,2;16,2;-12,3;48,6;1315
2021-08-04 07:00:00;14,7;99572;94;0,0098;0,0;1,0;331;1,8;0,86;-0,41;345;0;0;22,4;27,2;25,6;33,1;14,9;15,4;16,1;16,2;-12,3;48,6;1304
2021-08-04 08:00:00;16,6;99540;85;0,01;0,0;0,9;313;2,0;0,62;-0,63;532;0;0;22,5;27,2;25,6;33,1;15,3;15,5;16,1;16,2;-12,3;48,5;1293
2021-08-04 09:00:00;17,8;99532;74;0,0095;0,0;0,9;264;2,4;0,25;-0,43;542;0;0;22,5;27,2;25,6;33,1;15,8;15,6;16,0;16,2;-12,4;48,3;1363
2021-08-04 10:00:00;18,8;99510;71;0,0097;0,0;1,2;91;2,4;-0,05;0,88;682;0;0;22,5;27,1;25,6;33,0;16,4;15,8;16,0;16,2;-12,4;48,0;1327
2021-08-04 11:00:00;19,4;99498;66;0,0093;0,0;1,0;128;2,5;0,65;0,43;529;0;0;22,5;27,1;25,6;33,0;17,0;16,0;16,0;16,2;-12,5;47,8;1353
2021-08-04 12:00:00;19,8;99472;62;0,009;0,0;0,8;65;2,2;0,31;0,64;476;0;0;22,4;27,1;25,5;33,0;17,1;16,3;16,0;16,1;-12,5;47,7;1278
2021-08-04 13:00:00;20,2;99448;62;0,0092;0,0;1,2;111;3,0;-0,4;1,01;397;0;0;22,4;27,1;25,5;33,0;17,3;16,5;16,0;16,1;-12,5;47,7;1237
2021-08-04 14:00:00;20,1;99432;62;0,0091;0,0;0,9;178;2,3;-0,81;0,09;344;0;0;22,4;27,1;25,5;33,0;17,4;16,6;16,1;16,1;-12,5;46,8;1356
2021-08-04 15:00:00;21,1;99400;59;0,0093;0,0;1,2;161;2,6;-1,05;0,39;466;0;0;22,3;27,0;25,5;33,0;17,6;16,7;16,1;16,1;-12,6;46,6;1330
2021-08-04 16:00:00;19,6;99410;66;0,0095;0,0;2,1;241;4,6;-0,28;-1,89;124;0;0;22,3;27,0;25,5;33,0;17,5;16,9;16,2;16,1;-12,6;47,0;1339
2021-08-04 17:00:00;17,4;99435;78;0,0098;0,0;2,5;305;4,0;1,23;-1,94;76;0;0;22,3;27,1;25,5;33,0;17,4;16,9;16,2;16,1;-12,6;46,7;1344
2021-08-04 18:00:00;16,9;99435;83;0,01;0,0;0,5;252;1,1;-0,01;-0,42;33;0;0;22,3;27,1;25,4;33,0;17,2;16,9;16,3;16,1;-12,6;47,1;1312
2021-08-04 19:00:00;15,7;99452;88;0,0098;0,0;0,3;227;0,9;-0,14;-0,14;1;0;0;22,3;27,1;25,4;33,0;17,0;16,9;16,3;16,1;-12,6;47,1;1268
2021-08-04 20:00:00;14,5;99465;90;0,0093;0,0;0,6;219;1,4;-0,44;-0,36;0;0;0;22,3;27,1;25,4;33,0;16,7;16,8;16,4;16,1;-12,6;46,4;1319
2021-08-04 21:00:00;15,3;99460;90;0,0099;0,0;0,8;218;1,3;-0,09;-0,51;0;0;0;22,3;27,1;25,4;33,0;16,5;16,8;16,4;16,1;-12,6;46,6;1306
2021-08-04 22:00:00;14,9;99460;92;0,0098;0,0;0,5;223;0,9;-0,24;-0,23;0;0;0;22,3;27,1;25,4;33,0;16,4;16,7;16,4;16,1;-12,6;46,9;1341
2021-08-04 23:00:00;14,7;99440;93;0,0098;0,0;0,3;243;0,7;-0,12;-0,15;0;0;0;22,4;27,1;25,4;33,0;16,3;16,6;16,4;16,1;-12,6;47,3;1364
2021-08-05 00:00:00;14,3;99408;94;0,0097;0,0;0,6;192;1,1;-0,57;-0,14;0;0;0;22,4;27,0;25,4;33,0;16,2;16,5;16,4;16,1;-12,6;47,2;1315
2021-08-05 01:00:00;14,4;99370;94;0,0096;0,0;0,6;226;1,3;-0,39;-0,33;0;0;0;22,4;27,0;25,4;33,0;16,1;16,5;16,4;16,1;-12,6;46,9;1425
2021-08-05 02:00:00;14,1;99330;94;0,0095;0,0;0,6;176;1,1;-0,23;0,04;0;0;0;22,4;27,0;25,4;33,0;16,0;16,4;16,4;16,1;-12,6;46,3;1319
2021-08-05 03:00:00;14,0;99293;95;0,0096;0,0;0,3;221;1,0;-0,25;-0,18;0;0;0;22,4;27,1;25,4;33,0;15,9;16,3;16,4;16,1;-12,6;46,3;1331
2021-08-05 04:00:00;14,0;99262;95;0,0096;0,0;0,3;204;0,7;-0,09;-0,15;10;0;0;22,4;27,1;25,4;33,0;15,9;16,3;16,4;16,1;-12,6;46,4;1387
2021-08-05 05:00:00;14,6;99240;96;0,01;0,0;0,3;210;0,8;-0,16;-0,16;39;0;0;22,4;27,1;25,4;33,0;15,8;16,2;16,3;16,1;-12,6;46,7;1316
2021-08-05 06:00:00;15,6;99240;94;0,0105;0,0;0,7;168;1,3;-0,67;0,14;114;0;0;22,4;27,1;25,4;33,0;15,9;16,2;16,3;16,1;-12,6;47,1;1347
2021-08-05 07:00:00;16,9;99232;88;0,0107;0,0;0,5;170;1,1;-0,36;0,03;194;0;0;22,4;27,0;25,4;33,0;16,1;16,2;16,3;16,1;-12,6;47,2;1440
2021-08-05 08:00:00;18,2;99188;80;0,0105;0,0;0,8;298;1,9;0,27;-0,63;372;0;0;22,4;27,0;25,4;33,0;16,3;16,2;16,3;16,1;-12,6;46,7;1288
2021-08-05 09:00:00;19,7;99135;72;0,0104;0,0;1,4;283;3,0;0,38;-1,25;521;0;0;22,3;27,0;25,4;33,0;16,7;16,3;16,3;16,1;-12,6;46,6;1350
2021-08-05 10:00:00;19,8;99118;71;0,0103;0,0;2,0;272;3,8;0,04;-1,99;522;0;0;22,3;26,9;25,4;32,9;17,1;16,5;16,3;16,1;-12,6;46,4;1277
2021-08-05 11:00:00;20,6;99068;65;0,01;0,0;1,2;205;2,7;-0,9;-0,42;535;0;0;22,2;26,9;25,4;32,9;17,5;16,6;16,3;16,1;-12,7;46,4;1405
2021-08-05 12:00:00;21,7;98988;61;0,01;0,0;1,0;224;2,4;-0,32;-0,51;632;0;0;22,2;26,8;25,3;32,9;17,9;16,8;16,3;16,1;-12,7;46,4;1368
2021-08-05 13:00:00;19,5;99005;72;0,0103;0,14;1,6;186;4,0;-1,51;-0,29;294;0;0;22,1;26,8;25,3;32,9;18,1;17,1;16,3;16,1;-12,8;46,6;1371
2021-08-05 14:00:00;20,4;98963;70;0,0106;0,02;1,1;118;2,4;-0,61;0,79;340;0;0;22,1;26,8;25,3;32,9;18,1;17,2;16,4;16,1;-12,8;46,8;1392
2021-08-05 15:00:00;20,6;98915;72;0,0111;0,0;1,3;138;2,5;-0,97;0,83;343;0;0;22,1;26,8;25,3;32,9;18,1;17,3;16,4;16,1;-12,8;46,9;1348
2021-08-05 16:00:00;20,8;98868;72;0,0112;0,0;1,7;125;3,2;-1,0;1,4;290;0;0;22,1;26,8;25,3;32,9;18,2;17,4;16,5;16,1;-12,8;46,9;1341
2021-08-05 17:00:00;20,6;98835;74;0,0114;0,0;1,8;126;3,4;-1,13;1,44;216;0;0;22,1;26,8;25,3;32,9;18,2;17,5;16,5;16,1;-12,8;47,4;1325
2021-08-05 18:00:00;19,9;98815;77;0,0112;0,0;1,2;115;2,5;-0,5;1,08;70;0;0;22,0;26,8;25,3;32,9;18,1;17,5;16,6;16,1;-12,8;46,9;1348
2021-08-05 19:00:00;18,0;98835;84;0,0109;0,0;1,1;164;1,8;-1,06;0,26;4;0;0;22,0;26,8;25,3;32,9;17,9;17,5;16,6;16,1;-12,8;46,7;1410
2021-08-05 20:00:00;17,5;98840;86;0,0109;0,0;0,9;202;1,8;-0,84;-0,35;0;1;8;22,0;26,8;25,3;32,9;17,6;17,5;16,7;16,1;-12,8;47,1;1402
2021-08-05 21:00:00;17,2;98810;84;0,0105;0,0;1,3;208;2,8;-1,13;-0,56;0;0;0;22,0;26,8;25,3;32,9;17,4;17,4;16,7;16,1;-12,8;46,3;1398
2021-08-05 22:00:00;16,6;98770;87;0,0104;0,0;1,0;204;2,1;-0,86;-0,41;0;0;0;22,0;26,8;25,3;32,9;17,2;17,3;16,8;16,2;-12,8;46,0;1408
2021-08-05 23:00:00;16,9;98708;86;0,0106;0,0;1,9;195;3,2;-1,86;-0,52;0;0;0;22,0;26,8;25,3;32,9;17,1;17,2;16,8;16,2;-12,8;45,3;1443
2021-08-06 00:00:00;16,9;98650;86;0,0105;0,0;1,5;169;2,5;-1,44;0,24;0;0;0;22,0;26,9;25,3;32,9;17,0;17,2;16,8;16,2;-12,8;45,6;1358
2021-08-06 01:00:00;16,6;98613;86;0,0102;0,0;1,6;169;3,0;-1,55;0,25;0;0;0;22,0;26,9;25,3;32,9;16,9;17,1;16,8;16,2;-12,8;45,5;1466
2021-08-06 02:00:00;16,5;98582;86;0,0102;0,0;2,0;195;4,1;-1,92;-0,55;0;0;0;22,0;26,9;25,3;32,9;16,9;17,0;16,8;16,2;-12,8;45,4;1372
2021-08-06 03:00:00;15,9;98538;89;0,0102;0,0;1,3;151;2,5;-0,9;0,36;0;0;0;22,0;26,9;25,3;32,9;16,8;17,0;16,8;16,2;-12,8;45,5;1423
2021-08-06 04:00:00;15,5;98525;91;0,0101;0,0;0,9;165;1,7;-0,89;0,16;4;0;0;22,0;27,0;25,3;32,9;16,6;16,9;16,7;16,2;-12,8;45,0;1374
2021-08-06 05:00:00;16,3;98525;90;0,0106;0,21;1,7;188;3,0;-1,62;-0,3;19;0;0;22,0;27,0;25,3;32,9;16,6;16,9;16,7;16,2;-12,8;44,5;1484
2021-08-06 06:00:00;16,4;98555;92;0,0108;0,0;1,0;152;1,9;-0,87;0,36;62;0;0;22,0;27,0;25,3;32,9;16,6;16,8;16,7;16,2;-12,8;44,1;1457
2021-08-06 07:00:00;17,7;98575;88;0,0112;0,0;1,8;197;3,4;-1,64;-0,5;211;0;0;22,0;27,0;25,3;32,9;16,8;16,8;16,7;16,2;-12,8;43,6;1433
2021-08-06 08:00:00;18,8;98588;80;0,011;0,02;3,3;254;6,6;-0,37;-3,19;260;0;0;22,0;27,0;25,3;32,9;16,9;16,8;16,7;16,2;-12,8;43,7;1494
2021-08-06 09:00:00;19,1;98607;77;0,0108;0,0;2,7;258;5,4;-0,38;-2,67;328;0;0;22,0;26,9;25,3;32,9;17,1;16,9;16,7;16,2;-12,8;43,9;1458
2021-08-06 10:00:00;19,9;98608;72;0,0105;0,0;2,8;240;6,3;-1,2;-2,39;419;0;0;21,9;26,9;25,3;32,9;17,4;17,0;16,7;16,3;-12,8;43,9;1456
2021-08-06 11:00:00;20,2;98632;69;0,0103;0,0;3,3;254;8,3;-0,82;-3,22;427;0;0;21,9;26,9;25,2;32,8;17,5;17,0;16,7;16,3;-12,9;43,8;1384
2021-08-06 12:00:00;20,8;98635;67;0,0105;0,0;3,5;244;9,2;-1,39;-3,1;684;0;0;21,8;26,8;25,2;32,8;17,7;17,1;16,7;16,3;-13,0;43,9;1436
2021-08-06 13:00:00;20,8;98665;64;0,0099;0,0;4,2;257;8,9;-0,87;-4,07;505;0;0;21,7;26,8;25,2;32,8;18,0;17,3;16,7;16,3;-13,0;43,3;1413
2021-08-06 14:00:00;21,3;98680;63;0,0101;0,0;2,9;244;7,0;-1,17;-2,6;570;0;0;21,7;26,8;25,2;32,8;18,1;17,4;16,7;16,3;-13,0;43,5;1412
2021-08-06 15:00:00;21,2;98708;63;0,01;0,0;2,9;243;9,0;-1,27;-2,6;486;0;0;21,6;26,7;25,1;32,8;18,2;17,5;16,7;16,2;-13,1;43,1;1467
2021-08-06 16:00:00;20,2;98742;66;0,0099;0,0;2,9;245;7,7;-1,17;-2,62;274;0;0;21,5;26,7;25,1;32,8;18,2;17,6;16,8;16,3;-13,2;42,9;1472
2021-08-06 17:00:00;19,4;98762;67;0,0096;0,0;2,4;247;7,5;-0,89;-2,25;131;0;0;21,5;26,7;25,1;32,8;18,0;17,6;16,8;16,3;-13,2;42,6;1426
2021-08-06 18:00:00;18,5;98812;70;0,0095;0,0;2,2;255;5,9;-0,57;-2,12;16;0;0;21,5;26,7;25,1;32,8;17,8;17,6;16,9;16,3;-13,2;42,6;1466
2021-08-06 19:00:00;17,3;98840;75;0,0093;0,0;2,6;230;6,3;-1,59;-1,88;1;0;0;21,5;26,7;25,1;32,8;17,5;17,5;16,9;16,3;-13,2;42,4;1422
2021-08-06 20:00:00;15,7;98870;83;0,0094;0,0;0,9;212;2,4;-0,78;-0,5;0;0;0;21,5;26,7;25,1;32,8;17,3;17,4;16,9;16,3;-13,2;42,1;1370
2021-08-06 21:00:00;14,3;98872;88;0,0091;0,0;1,1;197;1,8;-1,08;-0,32;0;0;0;21,5;26,7;25,1;32,8;16,9;17,3;16,9;16,3;-13,2;42,2;1415
2021-08-06 22:00:00;14,7;98845;87;0,0092;0,0;0,5;226;1,7;-0,27;-0,32;0;0;0;21,5;26,7;25,1;32,8;16,7;17,2;16,9;16,3;-13,2;42,3;1438
2021-08-06 23:00:00;14,0;98830;88;0,0089;0,0;0,8;205;1,8;-0,7;-0,26;0;0;0;21,5;26,7;25,1;32,8;16,5;17,1;16,9;16,3;-13,2;42,3;1443
2021-08-07 00:00:00;13,9;98820;88;0,0088;0,0;0,9;262;2,0;-0,02;-0,81;0;0;0;21,5;26,7;25,1;32,8;16,2;16,9;16,9;16,3;-13,2;41,7;1492
2021-08-07 01:00:00;12,9;98808;90;0,0085;0,0;0,7;186;1,5;-0,49;0,13;0;0;0;21,5;26,7;25,1;32,8;16,0;16,8;16,9;16,3;-13,2;41,6;1416
2021-08-07 02:00:00;11,6;98788;93;0,0081;0,0;0,7;226;1,2;-0,5;-0,08;0;0;0;21,5;26,7;25,1;32,8;15,7;16,6;16,8;16,3;-13,2;41,3;1470
2021-08-07 03:00:00;11,7;98742;93;0,0081;0,0;1,0;208;1,8;-0,91;-0,19;0;0;0;21,5;26,7;25,1;32,8;15,4;16,4;16,8;16,3;-13,2;41,4;1473
2021-08-07 04:00:00;13,7;98712;93;0,0092;0,0;1,3;175;2,1;-1,27;0,12;3;0;0;21,5;26,7;25,1;32,8;15,4;16,3;16,7;16,3;-13,2;41,3;1407
2021-08-07 05:00:00;14,5;98680;92;0,0096;0,0;1,3;196;2,3;-1,19;-0,38;39;0;0;21,4;26,7;25,1;32,8;15,5;16,2;16,7;16,3;-13,2;41,3;1473
2021-08-07 06:00:00;16,2;98648;89;0,0103;0,0;1,7;212;4,3;-1,44;-0,88;186;0;0;21,4;26,7;25,1;32,8;15,7;16,2;16,6;16,3;-13,2;41,2;1497
2021-08-07 07:00:00;17,1;98648;84;0,0103;0,0;2,2;208;4,8;-1,92;-1,02;193;0;0;21,4;26,7;25,1;32,8;16,0;16,2;16,6;16,3;-13,2;41,3;1499
2021-08-07 08:00:00;18,0;98618;78;0,0102;0,0;2,6;206;5,9;-2,33;-1,17;292;0;0;21,4;26,7;25,1;32,8;16,2;16,2;16,5;16,3;-13,2;40,9;1475
2021-08-07 09:00:00;18,7;98580;72;0,0099;0,0;3,1;204;6,3;-2,78;-1,28;322;0;0;21,3;26,6;25,1;32,7;16,4;16,3;16,5;16,3;-13,3;40,2;1465
2021-08-07 10:00:00;17,6;98598;75;0,0096;0,09;2,7;234;7,0;-1,41;-2,05;213;0;0;21,3;26,6;25,1;32,7;16,6;16,4;16,5;16,3;-13,3;40,0;1464
2021-08-07 11:00:00;19,0;98525;71;0,0099;0,0;2,2;240;5,6;-1,1;-1,8;694;0;0;21,3;26,6;25,0;32,7;16,8;16,5;16,4;16,3;-13,4;39,7;1532
2021-08-07 12:00:00;20,8;98452;62;0,0096;0,0;2,1;212;4,4;-1,78;-0,98;556;0;0;21,3;26,5;25,0;32,7;17,4;16,6;16,5;16,3;-13,4;39,5;1519
2021-08-07 13:00:00;21,8;98425;54;0,0088;0,0;2,5;215;6,3;-2,05;-1,36;562;0;0;21,2;26,5;25,0;32,7;17,7;16,8;16,5;16,3;-13,5;39,6;1521
2021-08-07 14:00:00;20,5;98450;58;0,0089;0,0;2,9;206;6,0;-2,6;-1,22;270;0;0;21,1;26,5;25,0;32,7;17,7;17,0;16,5;16,3;-13,6;39,4;1430
2021-08-07 15:00:00;20,4;98415;61;0,0093;0,0;3,9;201;7,3;-3,66;-1,43;311;0;0;21,1;26,5;25,0;32,7;17,6;17,1;16,5;16,3;-13,6;39,3;1544
2021-08-07 16:00:00;19,9;98413;62;0,0092;0,0;2,8;204;5,8;-2,58;-1,14;152;0;0;21,1;26,4;24,9;32,7;17,6;17,2;16,6;16,3;-13,6;38,8;1506
2021-08-07 17:00:00;19,2;98460;65;0,0092;0,0;3,1;202;6,1;-2,87;-1,23;48;0;0;21,0;26,4;24,9;32,6;17,4;17,2;16,6;16,3;-13,6;38,6;1487
2021-08-07 18:00:00;17,8;98508;73;0,0095;0,0;1,9;208;4,2;-1,66;-0,9;26;2;16;21,0;26,4;24,9;32,6;17,2;17,2;16,6;16,3;-13,6;38,6;1490
2021-08-07 19:00:00;16,6;98533;77;0,0092;0,0;2,0;198;4,3;-1,85;-0,6;5;0;0;21,0;26,4;24,9;32,6;17,1;17,1;16,7;16,3;-13,6;38,7;1517
2021-08-07 20:00:00;16,5;98592;75;0,009;0,0;2,9;215;6,5;-2,43;-1,43;0;0;0;21,0;26,4;24,9;32,6;16,8;17,1;16,7;16,3;-13,6;38,9;1571
2021-08-07 21:00:00;15,2;98680;78;0,0086;0,0;1,2;227;3,6;-0,78;-0,91;0;0;0;21,0;26,4;24,9;32,6;16,7;17,0;16,7;16,3;-13,6;38,7;1471
2021-08-07 22:00:00;15,0;98740;82;0,0088;0,0;1,8;222;4,8;-1,34;-1,19;0;0;0;21,0;26,4;24,9;32,6;16,5;16,9;16,7;16,2;-13,6;38,8;1524
2021-08-07 23:00:00;15,2;98775;81;0,0088;0,0;2,1;246;6,0;-0,8;-1,94;0;0;0;21,0;26,4;24,9;32,6;16,3;16,8;16,7;16,3;-13,6;38,6;1475
2021-08-08 00:00:00;15,3;98813;79;0,0087;0,0;2,2;253;5,6;-0,64;-2,1;0;0;0;21,0;26,4;24,9;32,6;16,2;16,7;16,7;16,3;-13,6;38,8;1456
2021-08-08 01:00:00;15,0;98845;80;0,0085;0,0;1,4;248;4,4;-0,48;-1,29;0;0;0;20,9;26,4;24,9;32,6;16,1;16,6;16,6;16,3;-13,6;38,8;1451
2021-08-08 02:00:00;15,0;98892;79;0,0085;0,0;1,2;250;3,4;-0,38;-1,12;0;0;0;20,9;26,4;24,9;32,6;16,0;16,5;16,6;16,3;-13,6;38,9;1482
2021-08-08 03:00:00;14,7;98925;79;0,0083;0,0;1,8;256;4,9;-0,41;-1,77;0;0;0;20,9;26,4;24,9;32,6;15,9;16,4;16,6;16,3;-13,6;38,6;1588
2021-08-08 04:00:00;14,4;98978;80;0,0083;0,0;1,5;248;3,9;-0,51;-1,37;10;0;0;20,9;26,4;24,9;32,6;15,8;16,4;16,6;16,3;-13,6;38,6;1427
2021-08-08 05:00:00;15,0;99028;78;0,0084;0,0;1,8;249;5,7;-0,64;-1,7;114;0;0;20,9;26,4;24,9;32,6;15,7;16,3;16,5;16,3;-13,6;38,5;1448
2021-08-08 06:00:00;15,9;99080;74;0,0084;0,0;2,4;253;5,7;-0,66;-2,26;210;0;0;20,9;26,4;24,9;32,6;15,8;16,2;16,5;16,3;-13,6;38,4;1438
2021-08-08 07:00:00;16,5;99122;71;0,0084;0,0;2,8;254;7,1;-0,76;-2,67;326;0;0;20,9;26,4;24,9;32,6;15,9;16,2;16,5;16,3;-13,7;38,0;1432